Погода Геокчаы

Погода Геокчаы : погода сейчас, прогноз погоды и архив. Всё, что Вы хотите узнать о погоде Геокчаы!

Поиск расширенной информации на нашем сайте:

Другие новости

Новости СМИ2

Главная страница сайта

Новости сайта

02.10.2013

Напоминаем, что на нашем новом сайте вы можете получить высокодетализированные прогнозы погоды по пунктам России, СНГ и мира (включающие важные для авиации метеовеличины, такие как направление и скорость ветра, видимость, явления погоды, количество и форма облачности, нижняя и верхняя граница облачности), а также ознакомиться с разнообразными материалами по авиационной метеорологии и подборкой полезных ссылок на эту тему.

Сайт Метеоцентр.Азия посвящён разработке технологий оптимизации авиаметеорологического обслуживания, включая проектирование и перспективное создание нескольких автоматизированных авиаметеорологических систем:
- система выпуска высокодетальных прогностических карт явлений погоды для нижнего воздушного пространства по России и ближнему зарубежью;
- система верификации прогнозов TAF (выпускаемых синоптиками официальных АМСГ РФ и ближнего зарубежья) и AUTOTAF (выпускаемых сайтом Метеоцентр.Азия) - выявление ошибок, онлайн-сопоставление с фактической погодой METAR, автоматическое внесение коррективов в прогнозы при резком отклонении фактической погоды от прогноза, подсчёт оправдываемости прогнозов по элементам и в целом;
- система обработки, анализа и отображения авиаметеорологической информации для применения провайдерами метеорологической информации.

Рекомендуем: Наливное полиуретановое резиновое покрытие.

Погода Геокчаы - сегодня

Время (UTC), дата Ветер
(°,м/с) 
Видим.   Явления Облачность Т
(°С)
Тd
(°С)
f(%) Тe
(°С)
Pmin
(гПа)
dP
(гПа)
Po
(мм)
O2
(г/м3)
Тmin Tmax R s Состояние
почвы
12 25.02.17 270 (З) 20000 м    ясно 
+20.5 +5 36 +21  1021.6  -0.8  758  283           
15 25.02.17 320 (СЗ) 20000 м    ясно 
+18 +8.5 54 +19  1021.4  -0.2  758  285           
18 25.02.17 360 (С) 20000 м    ясно 
+9.2 +2.1 61 +9  1018.3  -3.4  755  294    +20.9       
21 25.02.17 340 (С) 20000 м    ясно 
+7 +0.4 63 +7  1017.7  -0.7  755  296           
00 26.02.17 360 (С) 20000 м    ясно 
+5.8 -0.2 65 +5  1015.9  -1.9  753  297           
03 26.02.17 360 (С) 20000 м    ясно 
+6.2 -0.3 63 +5  1014.6  -1.2  752  296           
06 26.02.17 090 (В) 20000 м    4/0 средняя 
[Ac trans]
+11.8 +0.2 45 +12  1016.3  1.8  754  291           
09 26.02.17 290 (З) 20  20000 м    8/8 600 м 
[Sc]
+20.1 -1.9 23 +20  1015.7  -0.4  753  283           
12 26.02.17 290 (З) 19-19{22}  20000 м    9/9 600 м 
[Sc]
+18 -2.2 25 +17  1016.1  0.5  754  285           
15 26.02.17 270 (З) 15-15{18}  20000 м    8/8 600 м 
[Sc]
+17.4 -1.7 27 +16  1019.1  756  287    -1.7       
18 26.02.17 140 (ЮВ) 9{16}  20000 м    10/10 600 м 
[Sc]
+7.9 +0.6 60 +5  1025.9  6.6  761  298    +20.5       
21 26.02.17 180 (Ю) 10  20000 м    10/10 600 м 
[Sc]
+4.9 -3.4 55 +1  1030.3  4.2  764  303           
00 27.02.17 230 (ЮЗ) 20000 м    10/10 600 м 
[Sc]
+3.9 -3.7 58 +1  1031.3  0.7  764  304           
03 27.02.17 230 (ЮЗ) 20000 м    10/10 600 м 
[Sc]
+3.6 -4.1 57 +2  1032  0.7  765  305           
06 27.02.17 290 (З) 20000 м    10/10 600 м 
[Sc]
+4.9 -3.8 53 +6  1032.2  0.2  765  303           
09 27.02.17 270 (З) 20000 м    8/8 600 м 
[Sc]
+8.2 -2.7 46 +8  1029.8  -2.2  764  299           
12 27.02.17 270 (З) 20000 м    6/6 600 м 
[Sc]
+9.4 -2.2 44 +8  1028.6  -1.1  763  297           
15 27.02.17 250 (З) 20000 м    6/6 600 м 
[Sc]
+8 -1.9 50 +9  1024.9  -3.8  760  298           
18 27.02.17 340 (С) 20000 м    ясно 
+2.9 -1.6 72 +4  1025.5  0.4  760  303    +17.4       
21 27.02.17 360 (С) 20000 м    ясно 
+1.8 -2.3 74 +3  1024.7  -0.8  760  304           
00 28.02.17 250 (З) 20000 м    ясно 
+1.1 -2.4 77 1023.9  -0.8  759  305           
03 28.02.17 360 (С) 20000 м    ясно 
+0.2 -2.5 82 -1  1024.8  0.8  760  306           
06 28.02.17 тихо ()   20000 м    3/0 верхняя 
[Cc]
+5.6 -0.8 63 +6  1027  2.4  762  301           
09 28.02.17 180 (Ю) 20000 м    3/0 верхняя 
[Cc]
+11.1 +1.3 51 +12  1026.7  -0.1  761  295           
12 28.02.17 200 (Ю) 20000 м    ясно 
+13.4 +2.5 48 +14  1025  -1.5  760  292           
Время (UTC), дата Ветер
(°,м/с) 
Видим.   Явления Облачность Т
(°С)
Тd
(°С)
f(%) Тe
(°С)
Pmin
(гПа)
dP
(гПа)
Po
(мм)
O2
(г/м3)
Тmin Tmax R s Состояние
почвы

Для получения пояснительной информации подведите курсор к названию столбца.

ПОГОДА Геокчаы - архив

Всё, что Вы хотите узнать о погоде Геокчаы - удобно и подробно!

Выберите нужную дату (начиная с 1 января 2015* года) и нажмите кнопку "Найти".
Будут отображены архивные сводки погоды по пункту Геокчаы, начиная с указанной даты.


Отображать данные в формате CSV (для использования в таблицах Excel)


Внимание! Наш архив погоды предназначен исключительно для личного некоммерческого использования в познавательных целях. Если Вам необходимы официальные справки о состоянии погоды (для производственных, юридических, коммерческих и т.п. целей), обращайтесь в органы Росгидромета.

*Примечание: данная дата относится к архиву по метеостанциям СССР (Россия, СНГ, Балтия).
Архив по метеостанциям Зарубежной Европы и Азии (кроме Китая) хранится 10 дней, по другим регионам земного шара (Китай, Африка, Америка, Австралия, Океания) - 1 день.

Геокчаы - район местоположения метеостанции


Название, широта, долгота, высота метеостанции:
Геокчаы 40.6°ш. 47.8°д. 95 м над ур. моря [Азербайджан]

Дополнительная информация

В oтличие oт бoльшинства пoгoдных сайтoв мы публикуем пoдрoбную метеoинфoрмацию в детальнoм прoфессиoнальнoм фoрмате.

Характеристики температуры и влажнoсти вoздуха измеряются на высoте 2 м в тени вдали oт зданий и деревьев.
Скoрoсть ветра измеряется на высoте 10 м (на урoвне рoста челoвека скoрoсть ветра ниже в 1.5-2 раза). Если метеoстанция нахoдится в гoрoде или в лесу, тo скoрoсть ветра занижена на 2-4 м/с пo сравнению с oткрытым местoм. Скoрoсть ветра над акватoриями крупных рек и oзёр, а также на вершинах хoлмoв на 2-5 м/с выше, чем в oбычных услoвиях.
Атмoсфернoе давление в разных тoчках местнoсти мoжет значительнo oтличаться oт давления на метеoстанции, в зависимoсти oт услoвий рельефа (при пoдъёме на 10 м давление пoнижается примернo на 1 мм рт.ст.).